User: anonymous   Login
Location: Unspecified
(0.0000°N, 0.0000°E)
Time: 21:15:41
(UTC+00:00)
Language:

CUTE-I - Orbit

View from above orbital plane
View from above orbital plane
View from above satellite
View from above satellite

Ground track
Ground track

The orbit data is extracted from the following two-line orbital elements,

1 27844U 03031E   21262.46023175  .00000064  00000-0  48563-4 0  9993
2 27844  98.6821 269.2512 0010195 160.4675 199.6895 14.22332943945348
Epoch (UTC): 19 September 2021 11:02:44
Eccentricity: 0.0010195
inclination: 98.6821°
perigee height: 810 km
apogee height: 825 km
right ascension of ascending node: 269.2512°
argument of perigee: 160.4675°
revolutions per day: 14.22332943
mean anomaly at epoch: 199.6895°
orbit number at epoch: 94534

The dashed part of the orbit path shows where the satellite is in the earth's shadow,  

DLR